Regional Weather Roundup
Issued by NWS

Home | Current Version | Previous Version | Graphics & Text | Print | Product List | Glossary On
Versions: 1 2 3 4 5 6 7 8 9 10 11 12 13 14 15 16 17 18 19 20 21 22 23 24 25 26 27 28 29 30 31 32 33 34 35 36 37 38 39 40 41 42 43 44 45 46 47 48 49 50
000
ASUS43 KMKX 251900
RWRWI

WISCONSIN REGIONAL WEATHER ROUNDUP
NATIONAL WEATHER SERVICE MILWAUKEE/SULLIVAN WI
200 PM CDT THU AUG 25 2016

NOTE: "FAIR" INDICATES FEW OR NO CLOUDS BELOW 12,000 FEET WITH NO
SIGNIFICANT WEATHER AND/OR OBSTRUCTIONS TO VISIBILITY.

WIZ001-002-006>008-014>016-023>028-252000-
NORTHWEST WISCONSIN

CITY           SKY/WX    TMP DP  RH WIND       PRES   REMARKS
SUPERIOR ARPT  CLOUDY    69  53  57 W16G26    29.96R
ASHLAND        LGT RAIN  76  53  44 W16G28    29.94R
HAYWARD        MOSUNNY   72  53  51 SW14G24   30.00R
SIREN          MOSUNNY   69  52  54 W14G25    30.02S
CUMBERLAND     PTSUNNY   70  50  49 SW13G22   30.02S
RICE LAKE      PTSUNNY   72  56  56 SW12G20   30.03S
CHETEK         NOT AVBL
LADYSMITH      MOSUNNY   75  58  54 W13       30.02S
EAU CLAIRE     NOT AVBL
MENOMONIE      PTSUNNY   77  51  41 W18G24    30.03S
NEW RICHMOND   CLOUDY    71  53  52 W17       30.04F
OSCEOLA        MOSUNNY   71  55  58 W17       30.07S
$$

WIZ003>005-009-010-017-018-252000-
NORTH CENTRAL WISCONSIN

CITY           SKY/WX    TMP DP  RH WIND       PRES   REMARKS
MANITOWISH WTR NOT AVBL
ARBOR VITAE    PTSUNNY   77  59  53 W14G23    29.98F
WOODRUFF       PTSUNNY   77  59  53 W14G23    29.98F
RHINELANDER    MOSUNNY   76  56  49 W14       29.99F
EAGLE RIVER    MOSUNNY   73  52  46 W18G25    29.98F
LAND O LAKES   PTSUNNY   75  52  43 SW12G20   29.98F
PHILLIPS       CLOUDY    74  55  51 SW15G30   29.99S
TOMAHAWK       MOSUNNY   74  55  50 W10G18    30.01S
MEDFORD        CLOUDY    73  59  60 W15G21    30.02F
MERRILL        MOSUNNY   76  58  53 W18G26    30.01F
$$

WIZ029-030-035-036-043>047-252000-
CENTRAL WISCONSIN

CITY           SKY/WX    TMP DP  RH WIND       PRES   REMARKS
WAUSAU         MOSUNNY   77  57  50 W12       30.00F
MOSINEE        MOSUNNY   75  57  53 W15G21    30.03F
MARSHFIELD     MOSUNNY   77  58  51 W15       30.02F
STEVENS POINT  SUNNY     75  56  52 W9G16     30.03S
WAUPACA        SUNNY     81  55  41 W7        30.02S HX  80
WAUTOMA        SUNNY     79  60  52 W9        30.04S HX  80
WISC RAPIDS    SUNNY     80  57  45 W13G21    30.04S HX  80
CAMP DOUGLAS   NOT AVBL
$$

WIZ011>013-019>022-031-037>040-048>050-252000-
NORTHEAST WISCONSIN

CITY           SKY/WX    TMP DP  RH WIND       PRES   REMARKS
ANTIGO         SUNNY     74  56  53 W16G22    30.02S
SHAWANO        SUNNY     80  56  44 W9G16     29.99F HX  80
OCONTO         NOT AVBL
STURGEON BAY   SUNNY     77  59  53 W9          N/A
GREEN BAY      SUNNY     78  61  55 W8        30.00S HX  80
MANITOWOC      NOT AVBL
APPLETON       PTSUNNY   75  54  46 W10       30.00F
CLINTONVILLE   SUNNY     79  55  44 W9        30.00S
OSHKOSH        SUNNY     77  59  53 SW5       30.02S
$$

WIZ032>034-041-042-053>061-252000-
SOUTHWEST WISCONSIN

CITY           SKY/WX    TMP DP  RH WIND       PRES   REMARKS
LA CROSSE      CLOUDY    79  59  50 W10       30.05S HX  80
SPARTA         MOSUNNY   77  61  58 SW9       30.06S
VIROQUA        CLOUDY    76  61  61 W8        30.09R
BOSCOBEL       CLOUDY    78  61  55 W8        30.08R HX  80
PRAIRIE DU CHI PTSUNNY   76  57  52 W3        30.08S
PLATTEVILLE    CLOUDY    77  60  55 CALM      30.08F
$$

WIZ056-057-062-063-064-067-068-252000-
SOUTH CENTRAL WISCONSIN

CITY           SKY/WX    TMP DP  RH WIND       PRES   REMARKS
REEDSBURG      NOT AVBL
BARABOO/DELLS  CLOUDY    75  60  59 SW7       30.07R
LONE ROCK      NOT AVBL
MINERAL POINT  CLOUDY    79  57  47 W3        30.08F HX  80
MADISON        PTSUNNY   78  57  48 W5        30.05S
MIDDLETON      MOSUNNY   80  58  46 NW3       30.07S HX  81
WATERTOWN      SUNNY     77  59  53 W3        30.05S
MONROE         CLOUDY    77  59  53 CALM      30.07S
JANESVILLE     NOT AVBL
$$

WIZ051-052-058>065-066-070>072-252000-
SOUTHEAST WISCONSIN

CITY           SKY/WX    TMP DP  RH WIND       PRES   REMARKS
MILWAUKEE      PTSUNNY   83  57  41 CALM      30.03F HX  82
WAUKESHA       SUNNY     77  57  50 NW6       30.05F
MILWAUKEE/TIMM SUNNY     81  54  39 W8        30.04S HX  80
RACINE         CLOUDY    81  60  48 MISG      30.04F HX  82
BURLINGTON     CLOUDY    79  58  48 NW6       30.05S HX  80
KENOSHA        CLOUDY    80  60  50 NW8       30.04S HX  81
FOND DU LAC    CLOUDY    78  58  49 W6        30.03S
SHEBOYGAN      SUNNY     78  58  49 W8        30.02F
WEST BEND      SUNNY     77  55  47 NW7       30.04S
JUNEAU         SUNNY     76  57  52 W5        30.06S
$$

LSZ147-162-252000-
LAKE SUPERIOR

STATION/POSITION TIME  TEMP    WIND        PRES    WAVE
                       AIR SEA DIR/SP/G            HT/PER
                 (UTC) (F)     (DEG/KT/KT) (MB)    (FT/S)
W MID LAKE BUOY  1750   69 68  240/ 19/ 23 1011.4F   4/ 5
DEVILS ISLAND    1800   68     240/ 22/ 26 1012.8F
PORT WING        1800   70     270/ 16/ 21 1013.9R
SAXON HARBOR     1840   75     250/  8/ 18 1013.2F
$$

LMZ867-665-643>646-252000-
LAKE MICHIGAN

STATION/POSITION TIME  TEMP    WIND        PRES    WAVE
                       AIR SEA DIR/SP/G            HT/PER
                 (UTC) (F)     (DEG/KT/KT) (MB)    (FT/S)
CHAMBERS ISLAND  1800   74     220/  5/ 10 1014.6S
S GREEN BAY BUOY 1800   74 73  250/ 10/ 10 1014.8F
N MID LAKE BUOY  1750   69 70  260/ 10/ 12 1013.8R   2/ 6
NORTHPORT PIER   1800   76     240/  5/  9 1014.6S
SISTER BAY       1837   78     280/ 10/ 12   N/A
ALGOMA LAKESHORE 1700           10/  7/ 10   N/A
KEWAUNEE LAKESHO 1800   75     290/  5/  9 1015.4R
SHEBOYGAN LAKESH 1800   76     270/  7/ 10 1015.8R
PORT WASHINGTON  1800   72     170/  7/  9 1017.3S
ATWATER BUOY     1800   63 48  190/  6/  6   N/A
MILWAUKEE LAKESH 1810   67     130/  5/  6   N/A
S MID LAKE BUOY  1750   71 75  330/ 10/ 12 1016.2R   2/ 3
KENOSHA   LAKESH 1800   71      50/  5/  6 1016.6F
$$

TC  - TEMPERATURE IN CELSIUS
VSB - VISIBILITY IN STATUTE MILES
WCI - WIND CHILL INDEX
HX  - HEAT INDEX




USA.gov is the U.S. government's official web portal to all federal, state and local government web resources and services.